Regional Weather Roundup
Issued by NWS

Home | Current Version | Previous Version | Text Only | Print | Product List | Glossary On
Versions: 1 2 3 4 5 6 7 8 9 10 11 12 13 14 15 16 17 18 19 20 21 22 23 24 25 26 27 28 29 30 31 32 33 34 35 36 37 38 39 40 41 42 43 44 45 46 47 48 49 50
000
ASUS43 KDTX 181801
RWRMI
MICHIGAN HOURLY REGIONAL WEATHER ROUNDUP
NATIONAL WEATHER SERVICE DETROIT/PONTIAC MI
100 PM EST SUN FEB 18 2018

NOTE: "FAIR" INDICATES FEW OR NO CLOUDS BELOW 12,000 FEET WITH NO
SIGNIFICANT WEATHER AND/OR OBSTRUCTION TO VISIBILITY.

MIZ047>049-052>055-059>063-066>070-074>076-081>083-181900-
SOUTHEAST LOWER MICHIGAN

CITY           SKY/WX    TMP DP  RH WIND       PRES   REMARKS
ADRIAN         CLOUDY    30  24  78 SW15      30.33R WCI  19
6HR MIN TEMP:  25; 6HR MAX TEMP:  31;

ALMA           FAIR      36  27  70 S9        30.26S WCI  29
6HR MIN TEMP:  30; 6HR MAX TEMP:  36;

ANN ARBOR      FAIR      32  24  72 SE14      30.30R WCI  22
BAD AXE        FAIR      33  22  63 SW9       30.26F WCI  25
6HR MIN TEMP:  26; 6HR MAX TEMP:  33;

CARO           FAIR      36  24  61 S9G16     30.25F WCI  29
DETROIT CITY   FAIR      37  25  61 S13       30.31S WCI  29
6HR MIN TEMP:  30; 6HR MAX TEMP:  37;

DETROIT        CLOUDY    35  25  66 SW13      30.32S WCI  26
6HR MIN TEMP:  30; 6HR MAX TEMP:  36;

FLINT          FAIR      34  23  64 S8        30.27F WCI  27
6HR MIN TEMP:  26; 6HR MAX TEMP:  34;

GROSSE ILE     PTSUNNY   33  26  74 S12       30.33R WCI  24
6HR MIN TEMP:  29; 6HR MAX TEMP:  35;

HILLSDALE      CLOUDY    32  25  74 S10       30.28F WCI  24
HOWELL         FAIR      37  25  63 S12       30.26S WCI  29
6HR MIN TEMP:  29; 6HR MAX TEMP:  37;


CITY           SKY/WX    TMP DP  RH WIND       PRES   REMARKS
JACKSON        FAIR      35  25  66 S14       30.28S WCI  26
6HR MIN TEMP:  24; 6HR MAX TEMP:  36;

LAMBERTVILLE   PTSUNNY   33  26  74 S5        30.33S WCI  28
6HR MIN TEMP:  29; 6HR MAX TEMP:  33;

LANSING        FAIR      37  25  61 SW13      30.27S WCI  29
6HR MIN TEMP:  27; 6HR MAX TEMP:  37;

LAPEER         FAIR      36  22  56 SW7       30.26F WCI  31
6HR MIN TEMP:  29; 6HR MAX TEMP:  36;

MASON          FAIR      37  22  56 S13       30.26F WCI  28
6HR MIN TEMP:  26; 6HR MAX TEMP:  37;

MONROE         CLOUDY    34  26  71 SW9       30.32R WCI  27
6HR MIN TEMP:  29; 6HR MAX TEMP:  34;

MT. CLEMENS    PTSUNNY   36  27  71 S14       30.29S WCI  27
6HR MIN TEMP:  31; 6HR MAX TEMP:  38;

PONTIAC        PTSUNNY   36  23  59 S9        30.26F WCI  29
6HR MIN TEMP:  26; 6HR MAX TEMP:  36;

PORT HOPE        N/A     34  19  54 SW8       30.24F WCI  27
6HR MIN TEMP:  29; 6HR MAX TEMP:  35;

PORT HURON     FAIR      36  21  55 S7        30.30S WCI  30
TRI CITIES     FAIR      36  23  59 S12       30.26F WCI  28
6HR MIN TEMP:  29; 6HR MAX TEMP:  36;

MIDLAND        FAIR      37  24  61 SW14G21   30.25S WCI  28
6HR MIN TEMP:  30; 6HR MAX TEMP:  37;

TROY           FAIR      39  24  55 S7        30.31S WCI  34
SAGINAW HB     FAIR      34  27  75 SW12      30.26S WCI  25
$$
MIZ043>046-050>051-056>058-064>065-071>073-077>080-181900-
SOUTHWEST LOWER MICHIGAN

CITY           SKY/WX    TMP DP  RH WIND       PRES   REMARKS
BATTLE CREEK   FAIR      32  24  72 S13G22    30.28R WCI  22
6HR MIN TEMP:  26; 6HR MAX TEMP:  33;

BENTON HARBOR  FAIR      31  23  72 S13       30.28F WCI  21
6HR MIN TEMP:  21; 6HR MAX TEMP:  32;

BIG RAPIDS     FAIR      34  21  58 S9        30.21F WCI  26
6HR MIN TEMP:  23; 6HR MAX TEMP:  34;

COLDWATER      PTSUNNY   32  24  73 SW9       30.30R WCI  24
6HR MIN TEMP:  20; 6HR MAX TEMP:  32;

FREMONT        FAIR      34  21  57 S10       30.22F WCI  26
6HR MIN TEMP:  21; 6HR MAX TEMP:  34;

HOLLAND        FAIR      35  25  66 S13       30.26F WCI  26
6HR MIN TEMP:  30; 6HR MAX TEMP:  35;

GRAND RAPIDS   PTSUNNY   36  24  62 S16       30.26S WCI  26
6HR MIN TEMP:  30; 6HR MAX TEMP:  36;

IONIA          FAIR      36  26  66 S13       30.25F WCI  27
6HR MIN TEMP:  29; 6HR MAX TEMP:  36;

KALAMAZOO      FAIR      31  24  75 S18       30.29R WCI  19
6HR MIN TEMP:  21; 6HR MAX TEMP:  32;

LUDINGTON      FAIR      33  27  78 S14       30.19F WCI  24
6HR MIN TEMP:  27; 6HR MAX TEMP:  33; 6HR PCP:  0.01;

MARSHALL       FAIR      33  23  68 S10       30.28S WCI  24
6HR MIN TEMP:  26; 6HR MAX TEMP:  33;

MOUNT PLEASANT FAIR      36  23  58 S7        30.24S WCI  31
6HR MIN TEMP:  29; 6HR MAX TEMP:  36;

MUSKEGON       FAIR      32  25  75 S15       30.25F WCI  22
6HR MIN TEMP:  20; 6HR MAX TEMP:  33;

SOUTH HAVEN    FAIR      35  25  66 S8        30.27F WCI  28
$$
MIZ016>042-181900-
NORTHERN LOWER MICHIGAN

CITY           SKY/WX    TMP DP  RH WIND       PRES   REMARKS
ALPENA         FAIR      35  20  54 SW12      30.20F WCI  27
6HR MIN TEMP:  27; 6HR MAX TEMP:  35;

BEAVER ISLAND  CLOUDY    29  18  63 SW5       30.20R WCI  24
6HR MIN TEMP:  22; 6HR MAX TEMP:  30;

BELLAIRE       CLOUDY    34  22  60 SW7       30.21S WCI  28
6HR MIN TEMP:  21; 6HR MAX TEMP:  34;

CADILLAC       PTSUNNY   32  20  62 S10G16    30.17F WCI  23
CHARLEVOIX     CLOUDY    31  21  66 SW8       30.23S WCI  24
6HR MIN TEMP:  20; 6HR MAX TEMP:  32;

FRANKFORT      CLOUDY    32  23  69 S8        30.18F WCI  25
GAYLORD        FAIR      31  19  61 S10       30.16R WCI  22
6HR MIN TEMP:  23; 6HR MAX TEMP:  31;

GRAYLING       FAIR      33  18  54 SW10      30.18R WCI  25
6HR MIN TEMP:  25; 6HR MAX TEMP:  33;

HARBOR SPRINGS CLOUDY    31  19  61 SW3       30.19F
HOUGHTON LAKE  FAIR      33  20  58 SW9       30.21R WCI  25
6HR MIN TEMP:  23; 6HR MAX TEMP:  33;

MANISTEE       FAIR      34  21  59 SE9       30.19F WCI  27
OSCODA         FAIR      35  20  54 S12G23    30.22F WCI  27
6HR MIN TEMP:  24; 6HR MAX TEMP:  36;

PELLSTON       PTSUNNY   31  19  61 S8        30.20S WCI  23
6HR MIN TEMP:   9; 6HR MAX TEMP:  31;

ROGERS CITY    PTSUNNY   35  19  53 SW7       30.20F WCI  29
TRAVERSE CITY  PTSUNNY   35  19  52 VRB7      30.19S WCI  29
6HR MIN TEMP:  28; 6HR MAX TEMP:  35;

$$
MIZ007>008-015-181900-
EASTERN UPPER MICHIGAN

CITY           SKY/WX    TMP DP  RH WIND       PRES   REMARKS
KINROSS        PTSUNNY   28  12  51 SW9       30.19S WCI  19
6HR MIN TEMP:  15; 6HR MAX TEMP:  28;

MACKINAC ISLAN PTSUNNY   27  15  59 S6        30.19F WCI  21
6HR MIN TEMP:  19; 6HR MAX TEMP:  27;

NEWBERRY       CLOUDY    24  10  56 S10       30.17S WCI  13
6HR MIN TEMP:  11; 6HR MAX TEMP:  24;

S. S. MARIE    FAIR      29  14  53 S7        30.17F WCI  22
6HR MIN TEMP:  20; 6HR MAX TEMP:  29;

MUNISING         N/A     23  12  62 S8        30.12F WCI  14
6HR MIN TEMP:   9; 6HR MAX TEMP:  23;

$$
MIZ004>006-011>014-085-181900-
CENTRAL UPPER MICHIGAN

CITY           SKY/WX    TMP DP  RH WIND       PRES   REMARKS
MANISTIQUE     CLOUDY    24  14  65 S6        30.18F WCI  17
6HR MIN TEMP:  12; 6HR MAX TEMP:  24;

ESCANABA       LGT SNOW  20  17  88 SE5       30.12F FOG     WCI  13
6HR MIN TEMP:   5; 6HR MAX TEMP:  23; 6HR PCP: TRACE;

MENOMINEE      PTSUNNY   28  18  66 S8        30.14F WCI  20
6HR MIN TEMP:  12; 6HR MAX TEMP:  28;

SAWYER-GWINN   LGT SNOW  19  14  79 S10       30.08F VSB 1   WCI   8
$$
MIZ001>003-009>011-084-181900-
WESTERN UPPER MICHIGAN

CITY           SKY/WX    TMP DP  RH WIND       PRES   REMARKS
IRON MOUNTAIN  CLOUDY    21  13  71 SE9       30.04F WCI  11
6HR MIN TEMP:   4; 6HR MAX TEMP:  21; 6HR PCP: TRACE;

HOUGHTON       HVY SNOW  19  13  77 SE9       29.99F VSB 1/4 WCI   8
6HR MIN TEMP:  15; 6HR MAX TEMP:  19; 6HR PCP:  0.01;

COPPER HARBOR    N/A     22  15  75 SW6       30.06F WCI  14
6HR MIN TEMP:  13; 6HR MAX TEMP:  22;

IRONWOOD       CLOUDY    21   9  59 SE13G23   29.86F WCI   9
6HR MIN TEMP:  11; 6HR MAX TEMP:  21; 6HR PCP: TRACE;

$$

ABBREVIATIONS USED IN REMARKS
   TC - TEMPERATURE IN CELSIUS
  WCI - WIND CHILL INDEX
   HX - HEAT INDEX
  VSB - VISIBILITY




USA.gov is the U.S. government's official web portal to all federal, state and local government web resources and services.